TimePST,TemperatureF,Dew PointF,Humidity,Sea Level PressureIn,VisibilityMPH,Wind Direction,Wind SpeedMPH,Gust SpeedMPH,PrecipitationIn,Events,Conditions,WindDirDegrees,DateUTC
12:25 AM,42.8,39.2,87,30.34,6.0,North,3.5,-,N/A,,Overcast,10,2013-02-10 08:25:00
12:53 AM,43.0,39.0,86,30.36,6.0,ENE,5.8,-,N/A,,Overcast,60,2013-02-10 08:53:00
1:23 AM,42.8,39.2,87,30.34,5.0,North,3.5,-,N/A,,Overcast,350,2013-02-10 09:23:00
1:53 AM,43.0,39.0,86,30.37,6.0,NNE,5.8,-,N/A,,Overcast,30,2013-02-10 09:53:00
2:53 AM,43.0,39.0,86,30.37,6.0,NNE,6.9,-,N/A,,Overcast,30,2013-02-10 10:53:00
3:36 AM,42.8,39.2,87,30.34,8.0,NE,8.1,-,N/A,,Overcast,40,2013-02-10 11:36:00
3:53 AM,42.1,37.9,85,30.37,10.0,NE,4.6,-,N/A,,Overcast,40,2013-02-10 11:53:00
4:36 AM,41.0,35.6,81,30.34,10.0,NNE,5.8,-,N/A,,Mostly Cloudy,30,2013-02-10 12:36:00
4:53 AM,41.0,36.0,82,30.37,10.0,NE,5.8,-,N/A,,Mostly Cloudy,50,2013-02-10 12:53:00
5:33 AM,39.2,35.6,87,30.34,10.0,NE,4.6,-,N/A,,Scattered Clouds,40,2013-02-10 13:33:00
5:53 AM,39.0,35.1,86,30.37,10.0,NNE,5.8,-,N/A,,Scattered Clouds,30,2013-02-10 13:53:00
6:53 AM,37.0,34.0,89,30.38,7.0,NE,4.6,-,N/A,,Scattered Clouds,40,2013-02-10 14:53:00
7:17 AM,37.4,35.6,93,30.36,6.0,NNE,4.6,-,N/A,,Scattered Clouds,20,2013-02-10 15:17:00
7:21 AM,37.4,33.8,87,30.36,4.0,NNE,5.8,-,N/A,Fog,Patches of Fog,30,2013-02-10 15:21:00
7:39 AM,37.4,33.8,87,30.36,4.0,NNE,6.9,-,N/A,Fog,Patches of Fog,30,2013-02-10 15:39:00
7:41 AM,37.4,33.8,87,30.36,0.5,NNE,5.8,-,N/A,Fog,Fog,30,2013-02-10 15:41:00
7:53 AM,37.9,35.1,89,30.39,0.5,NE,5.8,-,N/A,Fog,Fog,40,2013-02-10 15:53:00
8:11 AM,35.6,33.8,93,30.36,0.2,NNE,3.5,-,N/A,Fog,Fog,30,2013-02-10 16:11:00
8:53 AM,37.9,35.1,89,30.40,0.2,NE,4.6,-,N/A,Fog,Fog,50,2013-02-10 16:53:00
9:53 AM,37.9,36.0,93,30.40,0.2,Calm,Calm,-,N/A,Fog,Fog,0,2013-02-10 17:53:00
10:10 AM,39.2,35.6,87,30.37,0.2,East,3.5,-,N/A,Fog,Fog,80,2013-02-10 18:10:00
10:22 AM,39.2,37.4,93,30.37,0.2,Calm,Calm,-,N/A,Fog,Fog,0,2013-02-10 18:22:00
10:30 AM,39.2,37.4,93,30.37,0.2,Calm,Calm,-,N/A,Fog,Fog,0,2013-02-10 18:30:00
10:37 AM,39.2,37.4,93,30.37,0.2,Calm,Calm,-,N/A,Fog,Fog,0,2013-02-10 18:37:00
10:53 AM,41.0,37.0,86,30.40,1.5,NNE,3.5,-,N/A,,Mostly Cloudy,30,2013-02-10 18:53:00
11:05 AM,42.8,37.4,81,30.37,6.0,Calm,Calm,-,N/A,,Haze,0,2013-02-10 19:05:00
11:13 AM,42.8,37.4,81,30.37,8.0,Calm,Calm,-,N/A,,Mostly Cloudy,0,2013-02-10 19:13:00
11:53 AM,46.0,36.0,68,30.39,10.0,North,6.9,-,N/A,,Scattered Clouds,350,2013-02-10 19:53:00
12:53 PM,46.0,36.0,68,30.38,10.0,NNW,6.9,-,N/A,,Mostly Cloudy,340,2013-02-10 20:53:00
1:53 PM,48.0,35.1,61,30.37,10.0,NNW,5.8,-,N/A,,Mostly Cloudy,340,2013-02-10 21:53:00
2:53 PM,44.1,36.0,73,30.37,10.0,WNW,6.9,-,N/A,,Mostly Cloudy,300,2013-02-10 22:53:00
3:18 PM,42.8,35.6,76,30.34,10.0,WNW,6.9,-,N/A,,Mostly Cloudy,300,2013-02-10 23:18:00
3:53 PM,44.1,36.0,73,30.37,10.0,WNW,5.8,-,N/A,,Overcast,290,2013-02-10 23:53:00
4:53 PM,43.0,36.0,76,30.38,10.0,NW,5.8,-,N/A,,Overcast,310,2013-02-11 00:53:00
5:53 PM,43.0,36.0,76,30.37,10.0,Calm,Calm,-,N/A,,Overcast,0,2013-02-11 01:53:00
6:53 PM,43.0,36.0,76,30.38,10.0,Calm,Calm,-,N/A,,Overcast,0,2013-02-11 02:53:00
7:53 PM,43.0,36.0,76,30.38,10.0,WNW,3.5,-,N/A,,Overcast,300,2013-02-11 03:53:00
8:53 PM,43.0,36.0,76,30.38,10.0,North,4.6,-,N/A,,Overcast,350,2013-02-11 04:53:00
9:12 PM,42.8,35.6,76,30.34,10.0,North,3.5,-,N/A,,Overcast,360,2013-02-11 05:12:00
9:53 PM,43.0,36.0,76,30.36,10.0,North,3.5,-,N/A,,Overcast,350,2013-02-11 05:53:00
10:53 PM,43.0,37.0,80,30.35,10.0,Calm,Calm,-,N/A,,Overcast,0,2013-02-11 06:53:00
11:25 PM,42.8,37.4,81,30.33,10.0,Calm,Calm,-,N/A,,Overcast,0,2013-02-11 07:25:00
11:53 PM,42.1,37.9,85,30.36,10.0,North,4.6,-,N/A,,Overcast,350,2013-02-11 07:53:00